Change the Weather History Date:

Monday, December 30, 2013

  Actual Average (KGLD) Record (KGLD)
Temperature  
Mean Temperature 34 °F 29 °F  
Max Temperature 50 °F 42 °F 71 °F (1921)
Min Temperature 17 °F 17 °F -13 °F (1990)
Degree Days  
Heating Degree Days 32 36  
Month to date heating degree days 1056  
Since 1 July heating degree days 2375  
Cooling Degree Days 0 0  
Month to date cooling degree days 0  
Year to date cooling degree days 941  
Moisture  
Dew Point 21 °F    
Average Humidity 67    
Maximum Humidity 93    
Minimum Humidity 40    
Precipitation  
Precipitation 0.00 in 0.02 in 0.16 in (1973)
Month to date precipitation 0.45  
Year to date precipitation 19.65  
Snow  
Snow 0.00 in 0.20 in - ()
Month to date snowfall 5.3  
Since 1 July snowfall 12.5  
Snow Depth -    
Sea Level Pressure  
Sea Level Pressure 30.12 in    
Wind  
Wind Speed 13 mph (West)    
Max Wind Speed 29 mph    
Max Gust Speed 39 mph    
Visibility 10 miles    
Events      
T = Trace of Precipitation, MM = Missing Value Source: NWS Daily Summary

Daily Weather History Graph

Daily Weather History Graph

Search for Another Location

Airport or City:

Trip Planner

Search our weather history database for the weather conditions in past years. The results will help you decide how hot, cold, wet, or windy it might be!

Date:

Astronomy

Dec. 30, 2013 Rise Set
Actual Time 8:04 AM CST 5:29 PM CST
Civil Twilight 7:33 AM CST 6:00 PM CST
Nautical Twilight 7:00 AM CST 6:33 PM CST
Astronomical Twilight 6:27 AM CST 7:06 PM CST
Moon 5:56 AM CST (12/30) 4:04 PM CST (12/30)
Length of Visible Light 10h 26m
Length of Day
9h 25m
Waning Crescent, 4% of the Moon is Illuminated
Dec 30
Waning Crescent
Jan 1
New
Jan 7
First Quarter
Jan 15
Full
Jan 23
Last Quarter

Hourly Weather History & Observations

Time (CST) Temp. Windchill Dew Point Humidity Pressure Visibility Wind Dir Wind Speed Gust Speed Precip Events Conditions
12:15 AM 21.2 °F 10.1 °F 17.6 °F 86% 30.03 in 10.0 mi SW 10.4 mph - N/A   Scattered Clouds
12:35 AM 23.0 °F 10.6 °F 19.4 °F 86% 30.02 in 10.0 mi SW 13.8 mph - N/A   Clear
12:55 AM 23.0 °F 10.1 °F 19.4 °F 86% 30.03 in 10.0 mi SW 15.0 mph - N/A   Scattered Clouds
1:15 AM 24.8 °F 12.4 °F 19.4 °F 80% 30.02 in 10.0 mi SW 15.0 mph - N/A   Mostly Cloudy
1:35 AM 23.0 °F 11.7 °F 19.4 °F 86% 30.02 in 10.0 mi SW 11.5 mph - N/A   Mostly Cloudy
1:55 AM 23.0 °F 12.4 °F 17.6 °F 80% 30.02 in 10.0 mi SW 10.4 mph - N/A   Overcast
2:15 AM 23.0 °F 11.7 °F 19.4 °F 86% 30.01 in 10.0 mi SW 11.5 mph - N/A   Overcast
2:35 AM 23.0 °F 11.7 °F 19.4 °F 86% 30.01 in 10.0 mi SW 11.5 mph - N/A   Overcast
2:55 AM 23.0 °F 11.7 °F 19.4 °F 86% 30.02 in 10.0 mi SW 11.5 mph - N/A   Overcast
3:15 AM 23.0 °F 13.1 °F 19.4 °F 86% 30.02 in 10.0 mi WSW 9.2 mph - N/A   Overcast
3:35 AM 24.8 °F 15.3 °F 19.4 °F 80% 30.01 in 10.0 mi SSW 9.2 mph - N/A   Overcast
3:55 AM 24.8 °F 15.3 °F 19.4 °F 80% 30.00 in 10.0 mi SSW 9.2 mph - N/A   Overcast
4:15 AM 26.6 °F 19.1 °F 19.4 °F 74% 30.00 in 10.0 mi SW 6.9 mph - N/A   Overcast
4:35 AM 24.8 °F 16.1 °F 19.4 °F 80% 29.99 in 10.0 mi SW 8.1 mph - N/A   Scattered Clouds
4:55 AM 21.2 °F 11.7 °F 17.6 °F 86% 29.98 in 10.0 mi SW 8.1 mph - N/A   Clear
5:15 AM 19.4 °F 8.6 °F 17.6 °F 93% 29.99 in 10.0 mi SW 9.2 mph - N/A   Clear
5:35 AM 17.6 °F 8.2 °F 14.0 °F 86% 29.99 in 10.0 mi SW 6.9 mph - N/A   Clear
5:55 AM 17.6 °F 8.2 °F 15.8 °F 93% 30.00 in 10.0 mi WSW 6.9 mph - N/A   Clear
6:15 AM 19.4 °F 9.5 °F 15.8 °F 86% 30.01 in 10.0 mi West 8.1 mph - N/A   Clear
6:35 AM 23.0 °F 13.9 °F 19.4 °F 86% 30.02 in 10.0 mi West 8.1 mph - N/A   Clear
6:55 AM 23.0 °F 12.4 °F 17.6 °F 80% 30.03 in 10.0 mi West 10.4 mph - N/A   Clear
7:15 AM 23.0 °F 13.1 °F 19.4 °F 86% 30.04 in 10.0 mi West 9.2 mph - N/A   Clear
7:35 AM 23.0 °F 13.1 °F 19.4 °F 86% 30.04 in 10.0 mi West 9.2 mph - N/A   Clear
7:55 AM 23.0 °F 13.1 °F 19.4 °F 86% 30.05 in 10.0 mi West 9.2 mph - N/A   Clear
8:15 AM 23.0 °F 12.4 °F 19.4 °F 86% 30.06 in 10.0 mi WNW 10.4 mph - N/A   Clear
8:35 AM 28.4 °F 19.7 °F 21.2 °F 74% 30.07 in 10.0 mi WNW 9.2 mph - N/A   Clear
8:55 AM 28.4 °F 19.7 °F 21.2 °F 74% 30.08 in 10.0 mi West 9.2 mph - N/A   Clear
9:15 AM 33.8 °F 23.9 °F 23.0 °F 65% 30.09 in 10.0 mi WNW 15.0 mph - N/A   Clear
9:35 AM 35.6 °F 25.2 °F 23.0 °F 60% 30.10 in 10.0 mi WNW 18.4 mph 25.3 mph N/A   Clear
9:55 AM 37.4 °F 27.5 °F 23.0 °F 56% 30.12 in 10.0 mi WNW 18.4 mph 23.0 mph N/A   Clear
10:15 AM 41.0 °F 32.2 °F 24.8 °F 53% 30.13 in 10.0 mi NW 18.4 mph 24.2 mph N/A   Clear
10:35 AM 42.8 °F 33.8 °F 26.6 °F 53% 30.13 in 10.0 mi NW 21.9 mph 29.9 mph N/A   Clear
10:55 AM 44.6 °F 35.9 °F 23.0 °F 43% 30.13 in 10.0 mi NW 23.0 mph 34.5 mph N/A   Clear
11:15 AM 44.6 °F 35.3 °F 24.8 °F 46% 30.14 in 10.0 mi NW 26.5 mph 35.7 mph N/A   Clear
11:35 AM 46.4 °F 37.4 °F 26.6 °F 46% 30.14 in 10.0 mi NW 28.8 mph 35.7 mph N/A   Clear
11:55 AM 46.4 °F 38.3 °F 26.6 °F 46% 30.14 in 10.0 mi NNW 23.0 mph 32.2 mph N/A   Clear
12:15 PM 46.4 °F 37.7 °F 26.6 °F 46% 30.14 in 10.0 mi NW 26.5 mph 33.4 mph N/A   Clear
12:35 PM 46.4 °F 37.5 °F 26.6 °F 46% 30.13 in 10.0 mi NW 27.6 mph 34.5 mph N/A   Clear
12:55 PM 48.2 °F - 28.4 °F 46% 30.13 in 10.0 mi NW 27.6 mph 39.1 mph N/A   Clear
1:15 PM 48.2 °F - 28.4 °F 46% 30.13 in 10.0 mi NW 27.6 mph 35.7 mph N/A   Clear
1:35 PM 50.0 °F - 26.6 °F 40% 30.13 in 10.0 mi NW 25.3 mph 33.4 mph N/A   Clear
1:55 PM 50.0 °F - 26.6 °F 40% 30.13 in 10.0 mi NNW 27.6 mph 32.2 mph N/A   Clear
2:15 PM 50.0 °F - 26.6 °F 40% 30.13 in 10.0 mi NNW 26.5 mph 32.2 mph N/A   Clear
2:35 PM 50.0 °F - 26.6 °F 40% 30.14 in 10.0 mi NW 23.0 mph 34.5 mph N/A   Clear
2:55 PM 50.0 °F - 26.6 °F 40% 30.15 in 10.0 mi NNW 24.2 mph 31.1 mph N/A   Clear
3:15 PM 50.0 °F - 26.6 °F 40% 30.15 in 10.0 mi NW 20.7 mph 32.2 mph N/A   Clear
3:35 PM 50.0 °F - 26.6 °F 40% 30.16 in 10.0 mi NNW 18.4 mph 25.3 mph N/A   Clear
3:55 PM 48.2 °F - 26.6 °F 43% 30.17 in 10.0 mi NW 20.7 mph 27.6 mph N/A   Clear
4:15 PM 46.4 °F 39.5 °F 23.0 °F 40% 30.18 in 10.0 mi NNW 17.3 mph 24.2 mph N/A   Clear
4:35 PM 46.4 °F 40.4 °F 24.8 °F 43% 30.18 in 10.0 mi NNW 13.8 mph - N/A   Clear
4:55 PM 44.6 °F 39.7 °F 23.0 °F 43% 30.18 in 10.0 mi NNW 9.2 mph - N/A   Clear
5:15 PM 42.8 °F 38.6 °F 23.0 °F 46% 30.18 in 10.0 mi NNW 6.9 mph - N/A   Clear
5:35 PM 39.2 °F 34.2 °F 23.0 °F 52% 30.18 in 10.0 mi NNW 6.9 mph - N/A   Clear
5:55 PM 37.4 °F 32.8 °F 23.0 °F 56% 30.19 in 10.0 mi NW 5.8 mph - N/A   Clear
6:15 PM 32.0 °F 27.5 °F 19.4 °F 60% 30.20 in 10.0 mi WNW 4.6 mph - N/A   Clear
6:35 PM 32.0 °F 28.7 °F 21.2 °F 64% 30.20 in 10.0 mi WNW 3.5 mph - N/A   Clear
6:55 PM 30.2 °F 26.7 °F 19.4 °F 64% 30.21 in 10.0 mi WNW 3.5 mph - N/A   Clear
7:15 PM 32.0 °F 27.5 °F 21.2 °F 64% 30.21 in 10.0 mi NW 4.6 mph - N/A   Clear
7:35 PM 32.0 °F 25.6 °F 21.2 °F 64% 30.21 in 10.0 mi North 6.9 mph - N/A   Clear
7:55 PM 33.8 °F 26.4 °F 21.2 °F 60% 30.20 in 10.0 mi North 9.2 mph - N/A   Clear
8:15 PM 32.0 °F 24.2 °F 19.4 °F 60% 30.22 in 10.0 mi SSW 9.2 mph - N/A   Clear
8:35 PM 23.0 °F 13.1 °F 15.8 °F 74% 30.22 in 10.0 mi SW 9.2 mph - N/A   Clear
8:55 PM 23.0 °F 13.1 °F 15.8 °F 74% 30.23 in 10.0 mi SW 9.2 mph - N/A   Clear
9:15 PM 21.2 °F 11.7 °F 14.0 °F 74% 30.23 in 10.0 mi SW 8.1 mph - N/A   Clear
9:35 PM 21.2 °F 10.9 °F 14.0 °F 74% 30.23 in 10.0 mi SW 9.2 mph - N/A   Clear
9:55 PM 21.2 °F 10.1 °F 14.0 °F 74% 30.23 in 10.0 mi SW 10.4 mph - N/A   Clear
10:15 PM 21.2 °F 10.1 °F 14.0 °F 74% 30.23 in 10.0 mi SW 10.4 mph - N/A   Clear
10:35 PM 21.2 °F 10.1 °F 15.8 °F 80% 30.23 in 10.0 mi SW 10.4 mph - N/A   Clear
10:55 PM 21.2 °F 11.7 °F 15.8 °F 80% 30.23 in 10.0 mi SW 8.1 mph - N/A   Clear
11:15 PM 23.0 °F 13.9 °F 17.6 °F 80% 30.23 in 10.0 mi SW 8.1 mph - N/A   Clear
11:35 PM 23.0 °F 13.9 °F 17.6 °F 80% 30.22 in 10.0 mi SW 8.1 mph - N/A   Clear
11:55 PM 23.0 °F 13.1 °F 17.6 °F 80% 30.21 in 10.0 mi SW 9.2 mph - N/A   Clear